BADR-6

Last updated on Tue Oct 15 2024 00:02:38 GMT+0000 (Coordinated Universal Time)

1 33154U 08034B 24288.25327071 .00000145 00000+0 00000+0 0 9990 2 33154 1.2626 85.9077 0003376 97.2897 317.5453 1.00273417 59638
UTC large
Height (km)
Speed (km/s)
/
Latitude / Longitude
Inclination (degrees)
Orbital Period (minutes)
Azimuth
Elevation
Range (km)
Doppler Factor

Next 0 passes for location: London (51.5072 / 0.1276)

Sorry there are no passes over London.